Weather History for Stuttgart, AR

Change the Weather History Date:

Monday, January 7, 2013

  Actual Average Record
Temperature  
Mean Temperature 39 °F -  
Max Temperature 48 °F 47 °F 68 °F (2008)
Min Temperature 30 °F 34 °F 12 °F (2014)
Degree Days  
Heating Degree Days 26    
Moisture  
Dew Point 27 °F    
Average Humidity 67    
Maximum Humidity 86    
Minimum Humidity 43    
Precipitation  
Precipitation 0.00 in - - ()
Sea Level Pressure  
Sea Level Pressure 30.35 in    
Wind  
Wind Speed 4 mph (East)    
Max Wind Speed 9 mph    
Max Gust Speed -    
Visibility 7 miles    
Events      
Averages and records for this station are not official NWS values.
T = Trace of Precipitation, MM = Missing Value Source: NWS Daily Summary

Daily Weather History Graph

Daily Weather History Graph

Search for Another Location

Airport:

Trip Planner

Search our weather history database for the weather conditions in past years. The results will help you decide how hot, cold, wet, or windy it might be!

Date:

Astronomy

Jan. 07, 2013 Rise Set
Actual Time 7:13 AM CST 5:11 PM CST
Civil Twilight 6:46 AM CST 5:39 PM CST
Nautical Twilight 6:14 AM CST 6:10 PM CST
Astronomical Twilight 5:44 AM CST 6:41 PM CST
Moon 2:40 AM CST (1/7) 1:21 PM CST (1/7)
Length of Visible Light 10h 53m
Length of Day
9h 57m
Waning Crescent, 22% of the Moon is Illuminated
Jan 7
Waning Crescent
Jan 11
New
Jan 18
First Quarter
Jan 26
Full
Feb 3
Last Quarter

Hourly Weather History & Observations

Time (CST) Temp. Windchill Dew Point Humidity Pressure Visibility Wind Dir Wind Speed Gust Speed Precip Events Conditions
12:15 AM 35.6 °F 31.7 °F 28.4 °F 75% 30.41 in 10.0 mi NE 4.6 mph - N/A   Clear
12:35 AM 35.6 °F 30.7 °F 28.4 °F 75% 30.41 in 10.0 mi NE 5.8 mph - N/A   Clear
12:55 AM 35.6 °F 31.7 °F 28.4 °F 75% 30.40 in 10.0 mi ENE 4.6 mph - N/A   Clear
1:15 AM 33.8 °F 30.8 °F 28.4 °F 81% 30.40 in 10.0 mi ENE 3.5 mph - N/A   Clear
1:35 AM 33.8 °F 28.6 °F 28.4 °F 81% 30.40 in 10.0 mi NE 5.8 mph - N/A   Clear
1:55 AM 32.0 °F 26.4 °F 26.6 °F 80% 30.40 in 10.0 mi NE 5.8 mph - N/A   Clear
2:15 AM 33.8 °F 29.6 °F 28.4 °F 81% 30.40 in 10.0 mi NE 4.6 mph - N/A   Clear
2:35 AM 33.8 °F 30.8 °F 28.4 °F 81% 30.40 in 10.0 mi ENE 3.5 mph - N/A   Clear
2:55 AM 33.8 °F - 26.6 °F 75% 30.41 in 10.0 mi Calm Calm - N/A   Clear
3:35 AM 32.0 °F 28.7 °F 26.6 °F 80% 30.40 in 10.0 mi NE 3.5 mph - N/A   Clear
3:55 AM 30.2 °F 25.4 °F 26.6 °F 86% 30.40 in 10.0 mi NNE 4.6 mph - N/A   Clear
4:15 AM 30.2 °F 24.3 °F 26.6 °F 86% 30.40 in 10.0 mi NE 5.8 mph - N/A   Clear
4:35 AM 30.2 °F 21.9 °F 24.8 °F 80% 30.39 in 2.5 mi NE 9.2 mph - N/A   Clear
5:15 AM 32.0 °F 24.8 °F 26.6 °F 80% 30.38 in 10.0 mi ENE 8.1 mph - N/A   Clear
5:35 AM 32.0 °F 24.2 °F 26.6 °F 80% 30.38 in 10.0 mi ENE 9.2 mph - N/A   Clear
5:55 AM 32.0 °F 24.8 °F 26.6 °F 80% 30.39 in 10.0 mi ENE 8.1 mph - N/A   Clear
6:35 AM 30.2 °F 23.4 °F 24.8 °F 80% 30.40 in 10.0 mi ENE 6.9 mph - N/A   Clear
6:55 AM 30.2 °F 23.4 °F 24.8 °F 80% 30.40 in 10.0 mi ENE 6.9 mph - N/A   Clear
7:15 AM 30.2 °F 21.9 °F 26.6 °F 86% 30.40 in 9.0 mi ENE 9.2 mph - N/A   Clear
7:35 AM 30.2 °F 23.4 °F 24.8 °F 80% 30.40 in 9.0 mi ENE 6.9 mph - N/A   Clear
7:55 AM 32.0 °F 26.4 °F 26.6 °F 80% 30.41 in 9.0 mi ENE 5.8 mph - N/A   Clear
8:35 AM 33.8 °F 29.6 °F 26.6 °F 75% 30.42 in 10.0 mi ENE 4.6 mph - N/A   Clear
8:55 AM 33.8 °F 29.6 °F 26.6 °F 75% 30.43 in 10.0 mi East 4.6 mph - N/A   Clear
9:15 AM 35.6 °F 29.2 °F 26.6 °F 70% 30.43 in 10.0 mi East 8.1 mph - N/A   Clear
9:35 AM 35.6 °F 30.7 °F 26.6 °F 70% 30.44 in 10.0 mi East 5.8 mph - N/A   Clear
9:55 AM 35.6 °F 31.7 °F 26.6 °F 70% 30.45 in 10.0 mi ENE 4.6 mph - N/A   Clear
10:35 AM 37.4 °F - 26.6 °F 65% 30.46 in 8.0 mi Calm Calm - N/A   Clear
10:55 AM 39.2 °F - 26.6 °F 61% 30.47 in 3.0 mi Calm Calm - N/A   Clear
11:15 AM 39.2 °F 37.0 °F 26.6 °F 61% 30.44 in 2.0 mi SE 3.5 mph - N/A   Clear
11:35 AM 39.2 °F 35.9 °F 24.8 °F 56% 30.42 in 1.8 mi ESE 4.6 mph - N/A   Clear
11:55 AM 41.0 °F - 24.8 °F 53% 30.41 in 1.0 mi Calm Calm - N/A   Clear
12:35 PM 42.8 °F 39.3 °F 26.6 °F 53% 30.35 in 1.5 mi ENE 5.8 mph - N/A   Clear
1:15 PM 44.6 °F 42.2 °F 26.6 °F 49% 30.33 in 0.2 mi East 4.6 mph - N/A   Unknown
1:55 PM 46.4 °F 43.5 °F 26.6 °F 46% 30.32 in 0.2 mi SSE 5.8 mph - N/A   Unknown
2:15 PM 46.4 °F 45.2 °F 26.6 °F 46% 30.31 in 0.5 mi South 3.5 mph - N/A   Unknown
2:35 PM 48.2 °F - 26.6 °F 43% 30.31 in 4.0 mi South 4.6 mph - N/A   Clear
2:55 PM 46.4 °F 45.2 °F 26.6 °F 46% 30.30 in 0.2 mi SE 3.5 mph - N/A   Unknown
3:35 PM 46.4 °F - 26.6 °F 46% 30.29 in 2.5 mi Calm Calm - N/A   Clear
3:55 PM 46.4 °F - 26.6 °F 46% 30.28 in 0.2 mi Calm Calm - N/A   Unknown
4:15 PM 46.4 °F - 26.6 °F 46% 30.28 in 1.5 mi Calm Calm - N/A   Clear
4:35 PM 48.2 °F - 26.6 °F 43% 30.28 in 10.0 mi Calm Calm - N/A   Clear
5:15 PM 44.6 °F - 26.6 °F 49% 30.27 in 10.0 mi Calm Calm - N/A   Clear
5:35 PM 44.6 °F - 28.4 °F 53% 30.27 in 10.0 mi Calm Calm - N/A   Clear
5:55 PM 42.8 °F - 30.2 °F 61% 30.27 in 10.0 mi Calm Calm - N/A   Clear
6:35 PM 42.8 °F - 28.4 °F 57% 30.27 in 4.0 mi Calm Calm - N/A   Clear
6:55 PM 41.0 °F 38.0 °F 28.4 °F 61% 30.27 in 0.5 mi East 4.6 mph - N/A   Unknown
7:15 PM 42.8 °F 40.1 °F 28.4 °F 57% 30.27 in 0.5 mi East 4.6 mph - N/A   Unknown
7:55 PM 39.2 °F - 30.2 °F 70% 30.27 in 3.0 mi Calm Calm - N/A   Clear
8:15 PM 39.2 °F - 30.2 °F 70% 30.26 in 3.0 mi Calm Calm - N/A   Clear
8:35 PM 39.2 °F 35.9 °F 28.4 °F 65% 30.26 in 1.8 mi East 4.6 mph - N/A   Clear
9:15 PM 39.2 °F 34.2 °F 28.4 °F 65% 30.24 in 2.0 mi East 6.9 mph - N/A   Clear
9:35 PM 39.2 °F 37.0 °F 28.4 °F 65% 30.25 in 10.0 mi ESE 3.5 mph - N/A   Clear
9:55 PM 39.2 °F 35.9 °F 28.4 °F 65% 30.25 in 10.0 mi ESE 4.6 mph - N/A   Clear
10:15 PM 39.2 °F 35.9 °F 28.4 °F 65% 30.25 in 10.0 mi SE 4.6 mph - N/A   Clear
10:35 PM 37.4 °F 34.9 °F 28.4 °F 70% 30.25 in 10.0 mi ESE 3.5 mph - N/A   Clear
11:15 PM 37.4 °F 33.8 °F 28.4 °F 70% 30.24 in 10.0 mi East 4.6 mph - N/A   Clear
11:35 PM 37.4 °F 32.8 °F 28.4 °F 70% 30.23 in 10.0 mi SE 5.8 mph - N/A   Clear
11:55 PM 37.4 °F - 28.4 °F 70% 30.23 in 10.0 mi Calm Calm - N/A   Clear